Location: *
(46.0770°N, 1.6444°E)
Time: 13:26:34
(UTC+00:00)

SPOT 3 Rocket - Pass Details

Date: 16 September 2019
Orbit: 779 x 794 km, 98.8° (Epoch: 15 October)

Event Time Altitude Azimuth Distance (km) Brightness Sun altitude
Exits shadow 19:32:29 - 164° (SSE) 2,418 5.7 -15.8°
Reaches altitude 10° 19:32:42 10° 164° (SSE) 2,327 5.6 -15.9°
Maximum altitude 19:37:51 89° 70° (ENE) 787 3.5 -16.7°
Drops below altitude 10° 19:43:02 10° 346° (NNW) 2,344 6.5 -17.5°
Sets 19:45:22 0° 346° (NNW) 3,277 7.3 -17.9°
